STARLINK-32272, 60735

Orbit data source: Space-Track

STARLINK-32272, 60735 is a payload satellite owned by SpaceX/Seattle (US) in LEO that was launched on Wed, 28 Aug 2024 UTC via an FALCON 9 launch vehicle from the Air Force Eastern Test Range (AFETR). Payload-class satellites include a variety of spacecraft equipped with specific instruments for various scientific and technological missions. These include communications satellites like Starlink; space stations such as the ISS; scientific satellites like the Hubble; Earth observation satellites from companies like Planet Labs, Umbra, and HawkEye 360; GPS; miniature CubeSats for education and research; and military/defense satellites.

Loading next visibility...
Identifier
60735, 2024-152R
Orbit
LEO
Country
Flag of USUS
Related business
Manufacturer
SpaceX/Seattle
Mission
Operational Commercial Communications
Bus & Motor
STARLINK V2M, Unknown motor
Mass
730 kg wet, ~700 kg dry
Launch date (UTC)
2024-08-28 (1 year ago)
Launch vehicle
FALCON 9
Launch site
Air Force Eastern Test Range (AFETR)
Object type
Payload
Rocket body
Debris
Shape & HBR
Box + 2 Pan, 14.5 m
Radar Cross Section
36.964 m², Large (>1 m²)

Expand to show TLE details & history
Last TLE update: 18 hours ago

TLE from 18 hours ago
0 STARLINK-32272
1 60735U 24152R   25261.23225544  .00041399  00000-0  13392-2 0  9994
2 60735  53.1620 349.7075 0002733  17.0409 343.0684 15.31679327 60403
Epoch: 2025-09-18T05:34Z
TLE epoch observation values (Epoch: 2025-09-18T05:34:26.87Z)
Latitude
0.00002°
Longitude
-91.30125°
Altitude
469.912 km
Speed
7.633 km/s
True Right ascension
23h 18m 49s
True Declination
0° 00' 00"
Sunlit
Object was in full shadow at epoch
Visualization orbit readout
Latitude
Unknown
Longitude
Unknown
Altitude
Unknown
Speed
Unknown
Apparent Right ascension
Unknown
Apparent Declination
Unknown
Sunlit
N/A
Visualization observer readout
Local Sidereal Time
16:36:43
Azimuth
Unknown
Elevation
Unknown
Doppler factor
Unknown
Orbital elements
Apogee altitude
472.93 km
Perigee altitude
469.186 km
Semi-major axis
6,849.195 km
Eccentricity
0.00027
Inclination
53.162°
RAAN
349.7075°
Arg. of periapsis
17.0409°
True anomaly
343.05928°
Mean anomaly
343.0684°
Eccentric anomaly
343.06384°
Mean motion
3.82899 °/min
Orbital period
94.02 mins
BSTAR
0.0013392
Loading maneuver chart data...
Computing Atmospheric mass density...
Loading historical data...
Loading historical data...
Loading historical data...
Loading historical data...
Loading historical data...
Loading historical data...
Loading historical data...

Documentation

Showing up to 5 results
|